Total_Precipitation_Accumulation
2.75 3.03 3.03 2.94 2.92 3.06 3.02 2.87 2.68 2.67 2.67 2.49 2.31 2.36 2.42 2.42 2.55 2.74 2.90 2.87 2.84 3.09 3.56 3.81 3.85 3.71 3.61 3.54 3.46 3.31 3.12 2.99 2.93 2.80 2.70 2.59 2.46 2.40 2.37 2.36 2.32 2.15 2.08
3.34 3.50 3.47 3.30 3.12 3.24 3.24 3.16 3.01 3.09 3.11 3.08 2.86 2.72 2.63 2.67 2.67 2.76 3.02 3.24 3.08 3.03 3.45 4.00 4.29 4.26 4.10 3.94 3.66 3.38 3.26 3.20 3.13 3.00 2.88 2.70 2.48 2.43 2.43 2.44 2.44 2.28 2.14
3.91 3.99 3.98 3.65 3.42 3.47 3.70 3.70 3.61 3.59 3.34 3.26 3.16 3.10 2.96 2.81 2.79 2.86 3.12 3.57 3.47 3.51 3.67 3.73 3.89 3.98 4.09 4.21 4.15 3.88 3.61 3.41 3.30 3.21 3.12 3.01 2.79 2.58 2.52 2.53 2.59 2.53 2.34
3.96 4.12 4.10 3.93 3.81 3.77 4.03 4.17 4.14 4.10 3.91 3.80 3.61 3.39 3.18 3.11 3.05 3.16 3.29 3.56 3.82 3.77 3.97 3.85 3.61 3.62 3.88 4.11 4.23 4.24 4.05 3.70 3.50 3.54 3.51 3.36 3.09 2.92 2.76 2.64 2.65 2.64 2.52
4.27 4.39 4.28 4.28 4.33 4.43 4.42 4.16 4.29 4.16 4.16 4.05 3.60 3.45 3.20 3.13 3.29 3.23 3.31 3.42 3.62 3.64 3.71 3.70 3.67 3.58 3.71 4.03 4.12 4.32 4.30 4.14 3.92 3.79 3.85 3.75 3.49 3.24 3.01 2.81 2.65 2.58 2.54
4.68 4.97 4.93 4.85 4.85 4.83 4.64 4.56 4.60 4.36 4.18 4.07 3.62 3.42 3.23 3.11 3.11 3.18 3.13 3.16 3.20 3.14 3.15 3.25 3.53 3.42 3.53 3.68 3.74 3.92 4.19 4.30 4.12 3.89 3.82 3.88 3.69 3.31 2.97 2.84 2.75 2.65 2.58
5.52 5.59 5.39 5.26 5.12 5.10 5.02 4.98 4.83 4.61 4.31 4.21 4.19 3.81 3.27 3.06 3.04 2.92 2.88 2.93 3.01 2.99 3.00 3.03 3.00 2.98 3.01 3.21 3.26 3.40 3.69 4.04 4.11 4.05 3.99 3.91 3.79 3.49 3.11 2.85 2.80 2.75 2.66
5.70 5.61 5.67 5.62 5.47 5.36 5.21 5.02 4.91 4.69 4.30 4.22 4.22 4.14 3.68 3.36 2.96 2.54 2.52 2.57 2.73 2.90 2.77 2.67 2.73 2.79 2.74 2.84 2.84 3.13 3.36 3.58 3.84 3.95 3.85 3.71 3.58 3.49 3.40 3.21 3.04 2.93 2.84
5.83 5.66 5.56 5.37 5.28 5.16 5.07 4.91 4.71 4.54 4.30 4.14 4.09 4.26 3.95 3.50 3.04 2.70 2.36 2.31 2.43 2.56 2.49 2.48 2.43 2.49 2.59 2.71 2.68 2.84 3.01 3.04 3.37 3.65 3.75 3.60 3.42 3.30 3.25 3.24 3.19 3.13 3.06
5.40 5.16 5.08 5.01 4.89 4.55 4.37 4.23 4.20 4.05 3.91 3.71 3.76 3.69 3.53 3.33 3.32 3.21 2.93 2.70 2.64 2.61 2.53 2.40 2.31 2.38 2.39 2.55 2.72 2.71 2.68 2.65 2.89 3.19 3.44 3.52 3.38 3.36 3.34 3.30 3.27 3.26 3.26
4.80 4.52 4.43 4.33 4.11 3.72 3.39 3.29 3.48 3.51 3.50 3.39 3.39 3.40 3.38 3.20 3.12 3.14 3.09 3.01 2.96 2.77 2.64 2.61 2.54 2.46 2.38 2.35 2.42 2.51 2.48 2.32 2.42 2.60 2.92 3.23 3.34 3.43 3.45 3.34 3.33 3.32 3.35
4.28 3.91 3.57 3.35 3.10 2.92 2.74 2.72 2.81 2.89 3.12 3.21 3.33 3.33 3.31 3.18 3.04 3.08 2.98 2.93 2.97 2.85 2.67 2.51 2.44 2.37 2.30 2.25 2.17 2.36 2.16 2.02 2.01 2.10 2.30 2.58 2.85 3.02 3.01 3.12 3.28 3.36 3.45
3.52 3.21 2.88 2.77 2.61 2.51 2.46 2.48 2.52 2.48 2.60 2.78 2.89 3.00 3.08 3.04 3.00 3.05 3.16 3.12 2.94 2.76 2.68 2.48 2.27 2.17 2.15 2.19 2.16 2.20 1.99 1.86 1.78 1.77 1.78 1.90 2.06 2.31 2.48 2.67 2.86 3.04 3.16
2.73 2.51 2.28 2.11 2.08 2.14 2.10 2.20 2.24 2.26 2.27 2.34 2.41 2.66 2.77 2.76 2.78 2.75 2.80 2.94 2.99 2.80 2.56 2.37 2.23 2.07 1.98 1.90 1.92 1.93 1.67 1.68 1.54 1.51 1.51 1.56 1.62 1.71 1.87 2.00 2.11 2.19 2.27
2.06 1.90 1.83 1.79 1.75 1.80 1.92 1.96 1.92 1.95 2.07 2.10 2.14 2.28 2.31 2.30 2.37 2.43 2.53 2.64 2.84 2.85 2.59 2.27 2.11 1.94 1.77 1.65 1.71 1.52 1.45 1.48 1.33 1.26 1.24 1.27 1.30 1.37 1.45 1.54 1.65 1.67 1.68
1.78 1.73 1.64 1.57 1.52 1.52 1.55 1.66 1.70 1.72 1.78 1.90 1.97 2.00 2.00 1.96 2.03 2.10 2.26 2.43 2.52 2.58 2.47 2.07 1.80 1.66 1.59 1.44 1.54 1.38 1.39 1.41 1.19 1.14 1.10 1.13 1.18 1.25 1.29 1.33 1.37 1.45 1.46
1.52 1.49 1.40 1.31 1.28 1.28 1.33 1.45 1.49 1.54 1.60 1.70 1.79 1.77 1.77 1.77 1.85 1.85 1.88 1.96 2.11 2.22 2.20 1.92 1.73 1.65 1.60 1.50 1.50 1.46 1.42 1.34 1.18 1.17 1.09 1.09 1.12 1.14 1.16 1.18 1.17 1.22 1.33
1.40 1.35 1.24 1.15 1.10 1.11 1.17 1.22 1.25 1.27 1.40 1.45 1.48 1.52 1.50 1.54 1.59 1.59 1.63 1.66 1.75 1.90 1.97 1.94 1.83 1.77 1.68 1.58 1.59 1.59 1.34 1.15 1.11 1.13 1.03 0.98 0.99 0.99 1.02 1.04 1.03 1.01 1.04
1.39 1.28 1.12 1.06 1.02 1.00 1.01 1.07 1.12 1.11 1.14 1.22 1.25 1.33 1.36 1.41 1.37 1.31 1.37 1.47 1.52 1.58 1.78 1.81 1.70 1.64 1.56 1.46 1.60 1.52 1.39 1.48 1.14 1.05 0.96 0.89 0.88 0.85 0.87 0.88 0.90 0.89 0.85
1.29 1.21 1.13 1.04 1.00 0.95 0.96 0.97 0.96 1.00 1.04 1.10 1.11 1.15 1.16 1.19 1.22 1.26 1.28 1.42 1.49 1.61 1.70 1.71 1.66 1.61 1.53 1.46 1.60 1.60 1.57 1.52 1.29 0.97 0.92 0.81 0.84 0.82 0.81 0.80 0.79 0.78 0.76
1.29 1.22 1.14 1.06 0.93 0.84 0.80 0.84 0.85 0.88 0.97 1.01 1.02 1.00 0.99 1.04 1.13 1.13 1.10 1.22 1.39 1.57 1.57 1.58 1.57 1.59 1.52 1.57 1.54 1.49 1.52 1.56 1.44 1.20 1.19 0.98 0.92 0.95 0.96 0.89 0.82 0.79 0.74
1.23 1.19 1.09 0.98 0.86 0.71 0.74 0.75 0.76 0.82 0.93 0.98 0.95 0.94 0.91 0.89 0.93 0.98 0.98 1.05 1.22 1.36 1.45 1.53 1.54 1.56 1.56 1.64 1.67 1.65 1.63 1.67 1.64 1.35 1.38 1.27 1.12 1.19 1.10 1.00 0.91 0.78 0.70
1.25 1.17 1.06 1.01 0.95 0.83 0.67 0.58 0.62 0.74 0.89 0.90 0.90 0.94 0.85 0.78 0.88 0.91 0.94 0.93 0.97 1.01 1.14 1.37 1.53 1.58 1.70 1.84 1.93 1.85 1.77 1.73 1.72 1.51 1.60 1.53 1.37 1.40 1.12 0.97 1.01 0.86 0.75
1.17 1.17 1.14 1.17 1.15 0.92 0.69 0.53 0.58 0.74 0.85 0.79 0.78 0.86 0.93 0.94 0.90 0.91 0.91 0.94 0.97 0.97 1.00 1.08 1.35 1.46 1.50 1.69 1.89 1.93 1.90 1.81 1.78 1.75 1.84 1.80 1.42 1.34 1.17 1.33 1.30 1.10 0.91
1.07 1.09 1.11 1.18 1.16 1.00 0.78 0.62 0.63 0.75 0.83 0.81 0.80 0.78 0.79 0.85 0.85 0.90 0.97 1.13 1.17 1.15 0.93 0.97 1.11 1.20 1.26 1.40 1.56 1.75 1.95 2.04 1.97 1.85 1.82 1.83 1.59 1.44 1.44 1.64 1.56 1.46 1.21
0.96 0.94 1.00 1.10 1.06 0.96 0.76 0.59 0.60 0.64 0.75 0.87 0.97 0.96 0.92 0.85 0.83 0.89 1.03 1.21 1.28 1.25 1.23 1.35 1.46 1.45 1.44 1.49 1.45 1.63 1.93 2.06 2.02 1.96 1.81 1.83 1.80 1.73 1.80 1.82 1.79 1.67 1.58